• In Uzbekistan
  • List of Countries
  • For 7 days
  • Water Temperature
  • Satellite Maps
  • Weather Map
  • Weather Widgets
  • user-avatar
    Login

    Hourly Weather Innsbruck

    Today, 25 February, Saturday

    Time Temperature Precipitation Wind Pressure Humidity
    00:00 -10°C° 0.1 mm 1 mps 590 mmHg 97%
    01:00 -11°C° 0 mm 1 mps 590 mmHg 97%
    02:00 -12°C° 0 mm 1 mps 590 mmHg 97%
    03:00 -13°C° 0 mm 1 mps 590 mmHg 97%
    04:00 -14°C° 0 mm 1 mps 590 mmHg 96%
    05:00 -15°C° 0 mm 1 mps 589 mmHg 96%
    06:00 -16°C° 0 mm 1 mps 589 mmHg 95%
    07:00 -18°C° 0 mm 1 mps 588 mmHg 95%
    08:00 -14°C° 0 mm 1 mps 590 mmHg 92%
    09:00 -10°C° 0 mm 1 mps 592 mmHg 89%
    10:00 -6°C° 0 mm 1 mps 594 mmHg 86%
    11:00 -5°C° 0 mm 0 mps 595 mmHg 85%
    12:00 -4°C° 0 mm 0 mps 595 mmHg 83%
    13:00 -2°C° 0 mm 0 mps 596 mmHg 82%
    14:00 -2°C° 0 mm 0 mps 595 mmHg 85%
    15:00 -2°C° 0 mm 0 mps 595 mmHg 88%
    16:00 -2°C° 0 mm 0 mps 595 mmHg 90%
    17:00 -3°C° 0 mm 1 mps 594 mmHg 91%
    18:00 -7°C° 0 mm 1 mps 593 mmHg 93%
    19:00 -10°C° 0 mm 1 mps 591 mmHg 94%
    20:00 -9°C° 0 mm 1 mps 592 mmHg 93%
    21:00 -10°C° 0 mm 2 mps 592 mmHg 92%
    22:00 -9°C° 0 mm 2 mps 592 mmHg 91%
    23:00 -9°C° 0 mm 2 mps 592 mmHg 90%

    Tomorrow, 26 February, Sunday

    Time Temperature Precipitation Wind Pressure Humidity
    00:00 -9°C° 0 mm 2 mps 592 mmHg 89%
    01:00 -9°C° 0 mm 2 mps 592 mmHg 88%
    02:00 -9°C° 0 mm 2 mps 592 mmHg 87%
    03:00 -9°C° 0 mm 2 mps 592 mmHg 86%
    04:00 -9°C° 0 mm 2 mps 591 mmHg 86%
    05:00 -9°C° 0 mm 2 mps 591 mmHg 85%
    06:00 -9°C° 0 mm 2 mps 591 mmHg 84%
    07:00 -9°C° 0 mm 2 mps 591 mmHg 84%
    08:00 -4°C° 0 mm 1 mps 592 mmHg 86%
    09:00 -2°C° 0 mm 1 mps 593 mmHg 87%
    10:00 +1°C° 0 mm 1 mps 595 mmHg 89%
    11:00 +1°C° 0 mm 1 mps 595 mmHg 90%
    12:00 +2°C° 0 mm 1 mps 595 mmHg 90%
    13:00 +2°C° 0 mm 0 mps 595 mmHg 90%
    14:00 +1°C° 0 mm 0 mps 595 mmHg 92%
    15:00 +1°C° 0 mm 0 mps 594 mmHg 93%
    16:00 +1°C° 0 mm 0 mps 594 mmHg 94%
    17:00 -1°C° 0 mm 0 mps 593 mmHg 93%
    18:00 -3°C° 0 mm 0 mps 592 mmHg 92%
    19:00 -5°C° 0 mm 0 mps 591 mmHg 91%
    20:00 -5°C° 0 mm 0 mps 591 mmHg 90%
    21:00 -5°C° 0 mm 0 mps 591 mmHg 90%
    22:00 -5°C° 0 mm 0 mps 591 mmHg 89%
    23:00 -5°C° 0 mm 0 mps 591 mmHg 89%

    Day after tomorrow, 27 February, Monday

    Time Temperature Precipitation Wind Pressure Humidity
    00:00 -4°C° 0 mm 1 mps 591 mmHg 89%
    01:00 -6°C° 0 mm 1 mps 590 mmHg 89%
    02:00 -6°C° 0 mm 1 mps 590 mmHg 90%
    03:00 -6°C° 0 mm 1 mps 590 mmHg 91%
    04:00 -6°C° 0 mm 1 mps 590 mmHg 91%
    05:00 -6°C° 0 mm 1 mps 590 mmHg 91%
    06:00 -7°C° 0 mm 2 mps 590 mmHg 91%
    07:00 -7°C° 0 mm 2 mps 589 mmHg 91%
    08:00 -5°C° 0 mm 2 mps 590 mmHg 90%
    09:00 -3°C° 0 mm 2 mps 591 mmHg 89%
    10:00 -2°C° 0 mm 2 mps 591 mmHg 88%
    11:00 -1°C° 0 mm 2 mps 591 mmHg 87%
    12:00 +1°C° 0 mm 2 mps 591 mmHg 86%
    13:00 +2°C° 0 mm 2 mps 591 mmHg 85%
    14:00 +1°C° 0 mm 2 mps 590 mmHg 86%
    15:00 +2°C° 0 mm 1 mps 590 mmHg 88%
    16:00 +2°C° 0 mm 1 mps 589 mmHg 90%
    17:00 -2°C° 0 mm 2 mps 589 mmHg 91%
    18:00 -4°C° 0 mm 2 mps 588 mmHg 93%
    19:00 -5°C° 0 mm 2 mps 587 mmHg 94%
    20:00 -6°C° 0 mm 2 mps 587 mmHg 94%
    21:00 -7°C° 0 mm 3 mps 587 mmHg 94%
    22:00 -7°C° 0 mm 3 mps 586 mmHg 94%
    23:00 -7°C° 0 mm 3 mps 586 mmHg 93%

    28 February, Tuesday

    Time Temperature Precipitation Wind Pressure Humidity
    00:00 -7°C° 0 mm 3 mps 586 mmHg 93%
    01:00 -7°C° 0 mm 3 mps 586 mmHg 93%
    02:00 -7°C° 0 mm 3 mps 585 mmHg 93%
    03:00 -7°C° 0 mm 3 mps 585 mmHg 93%
    04:00 -7°C° 0 mm 3 mps 585 mmHg 93%
    05:00 -6°C° 0 mm 2 mps 585 mmHg 93%
    06:00 -6°C° 0 mm 2 mps 584 mmHg 93%
    07:00 -6°C° 0 mm 2 mps 584 mmHg 94%
    08:00 -5°C° 0.1 mm 2 mps 584 mmHg 92%
    09:00 -4°C° 0.1 mm 2 mps 585 mmHg 90%
    10:00 -2°C° 0.1 mm 2 mps 585 mmHg 89%
    11:00 -2°C° 0.3 mm 2 mps 584 mmHg 88%
    12:00 -1°C° 0.3 mm 2 mps 584 mmHg 88%
    13:00 -1°C° 0.3 mm 2 mps 583 mmHg 88%
    14:00 -1°C° 0.7 mm 2 mps 583 mmHg 90%
    15:00 -1°C° 0.7 mm 2 mps 583 mmHg 92%
    16:00 -1°C° 0.7 mm 2 mps 582 mmHg 93%
    17:00 -2°C° 2.2 mm 2 mps 582 mmHg 95%
    18:00 -3°C° 2.2 mm 2 mps 582 mmHg 96%
    19:00 -4°C° 2.2 mm 2 mps 582 mmHg 98%
    20:00 -6°C° 1.8 mm 3 mps 582 mmHg 97%
    21:00 -7°C° 1.8 mm 3 mps 582 mmHg 97%
    22:00 -8°C° 1.8 mm 3 mps 582 mmHg 97%
    23:00 -8°C° 0.7 mm 3 mps 583 mmHg 96%

    1 March, Wednesday

    Time Temperature Precipitation Wind Pressure Humidity
    00:00 -9°C° 0.7 mm 3 mps 583 mmHg 96%
    01:00 -9°C° 0.7 mm 2 mps 584 mmHg 95%
    02:00 -9°C° 0.4 mm 2 mps 585 mmHg 95%
    03:00 -9°C° 0.4 mm 2 mps 585 mmHg 95%
    04:00 -10°C° 0.4 mm 2 mps 586 mmHg 94%
    05:00 -10°C° 0.1 mm 2 mps 587 mmHg 94%
    06:00 -12°C° 0.1 mm 2 mps 587 mmHg 95%
    07:00 -13°C° 0.1 mm 2 mps 588 mmHg 95%
    08:00 -10°C° 0 mm 2 mps 589 mmHg 93%
    09:00 -9°C° 0 mm 2 mps 590 mmHg 91%
    10:00 -7°C° 0 mm 1 mps 591 mmHg 90%
    11:00 -6°C° 0 mm 2 mps 591 mmHg 90%
    12:00 -5°C° 0 mm 2 mps 591 mmHg 90%
    13:00 -3°C° 0 mm 2 mps 591 mmHg 90%
    14:00 -3°C° 0.1 mm 2 mps 591 mmHg 91%
    15:00 -3°C° 0.1 mm 2 mps 591 mmHg 92%
    16:00 -3°C° 0.1 mm 2 mps 591 mmHg 93%
    17:00 -4°C° 0.1 mm 2 mps 591 mmHg 94%
    18:00 -5°C° 0.1 mm 2 mps 591 mmHg 94%
    19:00 -6°C° 0.1 mm 2 mps 591 mmHg 94%
    20:00 -6°C° 0.1 mm 2 mps 590 mmHg 93%
    21:00 -6°C° 0.1 mm 2 mps 590 mmHg 92%
    22:00 -6°C° 0.1 mm 2 mps 590 mmHg 91%
    23:00 -6°C° 0.2 mm 2 mps 590 mmHg 91%

    2 March, Thursday

    Time Temperature Precipitation Wind Pressure Humidity
    00:00 -6°C° 0.2 mm 2 mps 591 mmHg 91%
    01:00 -6°C° 0.2 mm 2 mps 591 mmHg 91%
    02:00 -6°C° 0.7 mm 2 mps 591 mmHg 92%
    03:00 -5°C° 0.7 mm 2 mps 592 mmHg 93%
    04:00 -3°C° 0.7 mm 1 mps 593 mmHg 94%
    05:00 -5°C° 0.2 mm 2 mps 593 mmHg 94%
    06:00 -6°C° 0.2 mm 2 mps 593 mmHg 95%
    07:00 -6°C° 0.2 mm 2 mps 593 mmHg 95%
    08:00 -5°C° 0 mm 2 mps 594 mmHg 95%
    09:00 -2°C° 0 mm 1 mps 595 mmHg 95%
    10:00 -1°C° 0 mm 1 mps 595 mmHg 94%
    11:00 0°C° 0 mm 1 mps 595 mmHg 93%
    12:00 +1°C° 0 mm 1 mps 595 mmHg 92%
    13:00 0°C° 0 mm 0 mps 595 mmHg 91%
    14:00 +1°C° 0 mm 1 mps 595 mmHg 91%
    15:00 +1°C° 0 mm 1 mps 595 mmHg 92%
    16:00 +1°C° 0 mm 1 mps 594 mmHg 93%
    17:00 0°C° 0 mm 1 mps 594 mmHg 94%
    18:00 -2°C° 0 mm 1 mps 593 mmHg 94%
    19:00 -5°C° 0 mm 2 mps 593 mmHg 95%
    20:00 -5°C° 0 mm 2 mps 593 mmHg 95%
    21:00 -5°C° 0 mm 2 mps 593 mmHg 95%
    22:00 -5°C° 0 mm 2 mps 593 mmHg 95%
    23:00 -5°C° 0 mm 2 mps 593 mmHg 95%
    Show more